Location: Valencia
(39.4696°N, 0.3770°W)
Time: 08:12:27
(UTC+02:00)

ISS - Visible Passes

Search period start: 24 April 2014 00:00
Search period end: 04 May 2014 00:00
Orbit: 413 x 418 km, 51.6° (Epoch: 24 April)

Date Brightness Start Highest point End Pass type
(mag) Time Alt. Az. Time Alt. Az. Time Alt. Az.
24 Apr -3.2 21:13:59 10° NW 21:17:21 75° NE 21:20:41 10° ESE visible
24 Apr -0.5 22:52:37 10° WSW 22:53:36 11° SW 22:53:51 11° SW visible
25 Apr -1.1 22:02:21 10° W 22:04:51 20° SW 22:07:08 11° S visible
26 Apr -2.0 21:12:48 10° WNW 21:15:53 36° SW 21:18:57 10° SSE visible
